User: anonymous   Login
Location: Peebles
(55.6412°N, 3.1714°W)
Time: 19:58:29
(UTC+01:00)
Language:

Envisat - Orbit

View from above orbital plane
View from above orbital plane
View from above satellite
View from above satellite

Ground track
Ground track

The orbit data is extracted from the following two-line orbital elements,

1 27386U 02009A   24112.48629240  .00000536  00000-0  18892-3 0  9997
2 27386  98.2777  75.5620 0001223  84.3932  25.0674 14.38546252160359
Epoch (UTC): 21 April 2024 11:40:15
Eccentricity: 0.0001223
inclination: 98.2777°
perigee height: 762 km
apogee height: 764 km
right ascension of ascending node: 75.5620°
argument of perigee: 84.3932°
revolutions per day: 14.38546252
mean anomaly at epoch: 25.0674°
orbit number at epoch: 16035

The dashed part of the orbit path shows where the satellite is in the earth's shadow,  

DLR